Time,TemperatureF,DewpointF,PressureIn,WindDirection,WindDirectionDegrees,WindSpeedMPH,WindSpeedGustMPH,Humidity,HourlyPrecipIn,Conditions,Clouds,dailyrainin,SolarRadiationWatts/m^2,SoftwareType,DateUTC
2013-07-01 00:02:00,67.8,52.5,30.08,NNE,25,6.0,7.0,58,0.00,,,0.00,0,Wunderground v.1.15,2013-07-01 05:02:00,
2013-07-01 00:08:00,67.7,52.4,30.08,NE,43,5.0,7.0,58,0.00,,,0.00,0,Wunderground v.1.15,2013-07-01 05:08:00,
2013-07-01 00:14:00,67.7,52.4,30.08,NE,35,5.0,5.0,58,0.00,,,0.00,0,Wunderground v.1.15,2013-07-01 05:14:00,
2013-07-01 00:20:00,67.7,52.4,30.08,NNE,25,5.0,7.0,58,0.00,,,0.00,0,Wunderground v.1.15,2013-07-01 05:20:00,
2013-07-01 00:26:00,67.7,52.9,30.08,NNE,28,5.0,7.0,59,0.00,,,0.00,0,Wunderground v.1.15,2013-07-01 05:26:00,
2013-07-01 00:32:00,67.5,52.7,30.08,NNE,25,5.0,7.0,59,0.00,,,0.00,0,Wunderground v.1.15,2013-07-01 05:32:00,
2013-07-01 00:38:00,67.5,52.7,30.08,NNE,23,6.0,7.0,59,0.00,,,0.00,0,Wunderground v.1.15,2013-07-01 05:38:00,
2013-07-01 00:44:00,67.4,53.0,30.08,NNE,18,5.0,7.0,60,0.00,,,0.00,0,Wunderground v.1.15,2013-07-01 05:44:00,
2013-07-01 00:50:00,67.0,53.1,30.09,NNE,16,5.0,7.0,61,0.00,,,0.00,0,Wunderground v.1.15,2013-07-01 05:50:00,
2013-07-01 00:56:00,66.5,53.1,30.09,NNE,14,6.0,7.0,62,0.00,,,0.00,0,Wunderground v.1.15,2013-07-01 05:56:00,
2013-07-01 01:02:00,66.3,52.9,30.09,NNE,19,6.0,7.0,62,0.00,,,0.00,0,Wunderground v.1.15,2013-07-01 06:02:00,
2013-07-01 01:08:00,66.4,53.0,30.09,NNE,17,6.0,9.0,62,0.00,,,0.00,0,Wunderground v.1.15,2013-07-01 06:08:00,
2013-07-01 01:14:00,66.4,53.0,30.09,NNE,13,6.0,6.0,62,0.00,,,0.00,0,Wunderground v.1.15,2013-07-01 06:14:00,
2013-07-01 01:20:00,66.3,53.3,30.09,NNE,12,6.0,7.0,63,0.00,,,0.00,0,Wunderground v.1.15,2013-07-01 06:20:00,
2013-07-01 01:26:00,66.0,53.0,30.09,NNE,12,6.0,6.0,63,0.00,,,0.00,0,Wunderground v.1.15,2013-07-01 06:26:00,
2013-07-01 01:32:00,65.8,53.3,30.09,NNE,22,6.0,6.0,64,0.00,,,0.00,0,Wunderground v.1.15,2013-07-01 06:32:00,
2013-07-01 01:37:00,65.8,53.3,30.09,NNE,21,6.0,10.0,64,0.00,,,0.00,0,Wunderground v.1.15,2013-07-01 06:37:00,
2013-07-01 01:44:00,65.9,53.4,30.09,NNE,25,5.0,7.0,64,0.00,,,0.00,0,Wunderground v.1.15,2013-07-01 06:44:00,
2013-07-01 01:50:00,65.8,53.3,30.09,NE,35,5.0,7.0,64,0.00,,,0.00,0,Wunderground v.1.15,2013-07-01 06:50:00,
2013-07-01 01:56:00,65.7,53.6,30.09,North,10,6.0,7.0,65,0.00,,,0.00,0,Wunderground v.1.15,2013-07-01 06:56:00,
2013-07-01 02:02:00,65.6,53.5,30.09,NNE,29,6.0,9.0,65,0.00,,,0.00,0,Wunderground v.1.15,2013-07-01 07:02:00,
2013-07-01 02:08:00,65.4,53.3,30.08,NNE,21,5.0,7.0,65,0.00,,,0.00,0,Wunderground v.1.15,2013-07-01 07:08:00,
2013-07-01 02:14:00,65.4,53.3,30.08,North,9,5.0,5.0,65,0.00,,,0.00,0,Wunderground v.1.15,2013-07-01 07:14:00,
2013-07-01 02:20:00,65.3,53.6,30.09,North,8,4.0,7.0,66,0.00,,,0.00,0,Wunderground v.1.15,2013-07-01 07:20:00,
2013-07-01 02:26:00,65.0,53.4,30.08,North,6,4.0,7.0,66,0.00,,,0.00,0,Wunderground v.1.15,2013-07-01 07:26:00,
2013-07-01 02:32:00,64.7,53.5,30.09,North,357,5.0,7.0,67,0.00,,,0.00,0,Wunderground v.1.15,2013-07-01 07:32:00,
2013-07-01 02:38:00,64.4,53.6,30.09,North,2,5.0,7.0,68,0.00,,,0.00,0,Wunderground v.1.15,2013-07-01 07:38:00,
2013-07-01 02:44:00,64.2,53.4,30.09,North,2,5.0,7.0,68,0.00,,,0.00,0,Wunderground v.1.15,2013-07-01 07:44:00,
2013-07-01 02:50:00,64.0,53.6,30.09,North,2,5.0,7.0,69,0.00,,,0.00,0,Wunderground v.1.15,2013-07-01 07:50:00,
2013-07-01 02:56:00,63.9,53.5,30.09,North,357,5.0,7.0,69,0.00,,,0.00,0,Wunderground v.1.15,2013-07-01 07:56:00,
2013-07-01 03:02:00,63.8,53.4,30.09,North,357,5.0,7.0,69,0.00,,,0.00,0,Wunderground v.1.15,2013-07-01 08:02:00,
2013-07-01 03:08:00,63.7,53.3,30.09,North,357,5.0,7.0,69,0.00,,,0.00,0,Wunderground v.1.15,2013-07-01 08:08:00,
2013-07-01 03:14:00,63.7,53.3,30.09,North,357,4.0,4.0,69,0.00,,,0.00,0,Wunderground v.1.15,2013-07-01 08:14:00,
2013-07-01 03:20:00,63.6,53.6,30.09,North,357,4.0,7.0,70,0.00,,,0.00,0,Wunderground v.1.15,2013-07-01 08:20:00,
2013-07-01 03:26:00,63.6,53.6,30.09,North,352,4.0,7.0,70,0.00,,,0.00,0,Wunderground v.1.15,2013-07-01 08:26:00,
2013-07-01 03:32:00,63.4,53.4,30.09,North,352,5.0,7.0,70,0.00,,,0.00,0,Wunderground v.1.15,2013-07-01 08:32:00,
2013-07-01 03:38:00,63.2,53.6,30.09,North,352,4.0,7.0,71,0.00,,,0.00,0,Wunderground v.1.15,2013-07-01 08:38:00,
2013-07-01 03:44:00,63.1,53.5,30.09,North,352,4.0,7.0,71,0.00,,,0.00,0,Wunderground v.1.15,2013-07-01 08:44:00,
2013-07-01 03:50:00,63.0,53.8,30.09,NNW,348,4.0,7.0,72,0.00,,,0.00,0,Wunderground v.1.15,2013-07-01 08:50:00,
2013-07-01 03:56:00,63.0,53.8,30.09,NNW,347,4.0,7.0,72,0.00,,,0.00,0,Wunderground v.1.15,2013-07-01 08:56:00,
2013-07-01 04:02:00,62.8,53.6,30.09,NNW,347,4.0,7.0,72,0.00,,,0.00,0,Wunderground v.1.15,2013-07-01 09:02:00,
2013-07-01 04:08:00,62.7,53.9,30.09,NNW,347,4.0,7.0,73,0.00,,,0.00,0,Wunderground v.1.15,2013-07-01 09:08:00,
2013-07-01 04:14:00,62.5,53.7,30.10,NNW,347,4.0,4.0,73,0.00,,,0.00,0,Wunderground v.1.15,2013-07-01 09:14:00,
2013-07-01 04:19:00,62.3,53.5,30.10,NNW,346,4.0,7.0,73,0.00,,,0.00,0,Wunderground v.1.15,2013-07-01 09:19:00,
2013-07-01 04:25:00,62.2,53.8,30.10,NNW,346,4.0,7.0,74,0.00,,,0.00,0,Wunderground v.1.15,2013-07-01 09:25:00,
2013-07-01 04:32:00,62.0,53.6,30.10,NNW,346,4.0,7.0,74,0.00,,,0.00,0,Wunderground v.1.15,2013-07-01 09:32:00,
2013-07-01 04:38:00,61.8,53.8,30.10,NNW,346,4.0,7.0,75,0.00,,,0.00,0,Wunderground v.1.15,2013-07-01 09:38:00,
2013-07-01 04:44:00,61.6,53.6,30.10,NNW,343,5.0,5.0,75,0.00,,,0.00,0,Wunderground v.1.15,2013-07-01 09:44:00,
2013-07-01 04:50:00,61.4,53.4,30.11,NNW,343,5.0,7.0,75,0.00,,,0.00,0,Wunderground v.1.15,2013-07-01 09:50:00,
2013-07-01 04:56:00,61.1,53.5,30.11,NNW,343,4.0,7.0,76,0.00,,,0.00,0,Wunderground v.1.15,2013-07-01 09:56:00,
2013-07-01 05:02:00,60.9,53.3,30.11,NNW,343,4.0,7.0,76,0.00,,,0.00,0,Wunderground v.1.15,2013-07-01 10:02:00,
2013-07-01 05:08:00,60.8,53.2,30.11,NNW,343,4.0,7.0,76,0.00,,,0.00,0,Wunderground v.1.15,2013-07-01 10:08:00,
2013-07-01 05:14:00,60.6,53.3,30.11,NNW,343,4.0,7.0,77,0.00,,,0.00,0,Wunderground v.1.15,2013-07-01 10:14:00,
2013-07-01 05:20:00,60.6,53.3,30.11,NNW,343,4.0,7.0,77,0.00,,,0.00,0,Wunderground v.1.15,2013-07-01 10:20:00,
2013-07-01 05:26:00,60.5,53.3,30.11,NNW,343,3.0,7.0,77,0.00,,,0.00,0,Wunderground v.1.15,2013-07-01 10:26:00,
2013-07-01 05:32:00,60.5,53.3,30.11,NNW,341,4.0,7.0,77,0.00,,,0.00,0,Wunderground v.1.15,2013-07-01 10:32:00,
2013-07-01 05:37:00,60.5,53.3,30.12,NNW,341,4.0,7.0,77,0.00,,,0.00,0,Wunderground v.1.15,2013-07-01 10:37:00,
2013-07-01 05:44:00,60.5,53.3,30.12,NNW,340,4.0,7.0,77,0.00,,,0.00,0,Wunderground v.1.15,2013-07-01 10:44:00,
2013-07-01 05:50:00,60.4,53.2,30.12,NNW,339,4.0,7.0,77,0.00,,,0.00,0,Wunderground v.1.15,2013-07-01 10:50:00,
2013-07-01 05:56:00,60.4,53.2,30.12,NNW,339,4.0,7.0,77,0.00,,,0.00,0,Wunderground v.1.15,2013-07-01 10:56:00,
2013-07-01 06:02:00,60.3,53.1,30.12,NNW,339,4.0,7.0,77,0.00,,,0.00,0,Wunderground v.1.15,2013-07-01 11:02:00,
2013-07-01 06:08:00,60.2,53.3,30.12,NNW,339,4.0,7.0,78,0.00,,,0.00,0,Wunderground v.1.15,2013-07-01 11:08:00,
2013-07-01 06:14:00,60.1,53.2,30.12,NNW,339,4.0,7.0,78,0.00,,,0.00,5,Wunderground v.1.15,2013-07-01 11:14:00,
2013-07-01 06:20:00,60.0,53.1,30.13,NNW,338,4.0,7.0,78,0.00,,,0.00,7,Wunderground v.1.15,2013-07-01 11:20:00,
2013-07-01 06:25:00,60.0,53.1,30.13,NNW,337,4.0,7.0,78,0.00,,,0.00,12,Wunderground v.1.15,2013-07-01 11:25:00,
2013-07-01 06:32:00,59.9,53.0,30.13,NNW,335,4.0,7.0,78,0.00,,,0.00,16,Wunderground v.1.15,2013-07-01 11:32:00,
2013-07-01 06:38:00,59.9,53.4,30.13,NNW,336,4.0,7.0,79,0.00,,,0.00,23,Wunderground v.1.15,2013-07-01 11:38:00,
2013-07-01 06:44:00,59.9,53.4,30.13,NNW,336,4.0,7.0,79,0.00,,,0.00,28,Wunderground v.1.15,2013-07-01 11:44:00,
2013-07-01 06:50:00,59.9,53.4,30.13,NNW,337,4.0,7.0,79,0.00,,,0.00,37,Wunderground v.1.15,2013-07-01 11:50:00,
2013-07-01 06:56:00,59.9,53.7,30.13,NNW,336,4.0,7.0,80,0.00,,,0.00,46,Wunderground v.1.15,2013-07-01 11:56:00,
2013-07-01 07:02:00,60.0,53.8,30.14,NNW,337,4.0,7.0,80,0.00,,,0.00,53,Wunderground v.1.15,2013-07-01 12:02:00,
2013-07-01 07:08:00,60.2,54.0,30.13,NNW,337,4.0,7.0,80,0.00,,,0.00,67,Wunderground v.1.15,2013-07-01 12:08:00,
2013-07-01 07:14:00,60.4,54.2,30.14,NNW,337,4.0,7.0,80,0.00,,,0.00,79,Wunderground v.1.15,2013-07-01 12:14:00,
2013-07-01 07:19:00,60.6,54.4,30.14,NNW,337,5.0,7.0,80,0.00,,,0.00,90,Wunderground v.1.15,2013-07-01 12:19:00,
2013-07-01 07:26:00,61.0,54.4,30.13,NNW,338,4.0,7.0,79,0.00,,,0.00,104,Wunderground v.1.15,2013-07-01 12:26:00,
2013-07-01 07:32:00,61.4,54.8,30.14,NNW,338,4.0,7.0,79,0.00,,,0.00,120,Wunderground v.1.15,2013-07-01 12:32:00,
2013-07-01 07:38:00,61.9,55.3,30.13,NNW,339,4.0,7.0,79,0.00,,,0.00,137,Wunderground v.1.15,2013-07-01 12:38:00,
2013-07-01 07:44:00,62.3,55.4,30.14,NNW,339,4.0,4.0,78,0.00,,,0.00,151,Wunderground v.1.15,2013-07-01 12:44:00,
2013-07-01 07:50:00,62.9,55.6,30.14,NNW,339,4.0,7.0,77,0.00,,,0.00,163,Wunderground v.1.15,2013-07-01 12:50:00,
2013-07-01 07:56:00,63.4,55.7,30.14,NNW,340,5.0,8.0,76,0.00,,,0.00,176,Wunderground v.1.15,2013-07-01 12:56:00,
2013-07-01 08:02:00,63.9,56.2,30.14,NNW,343,5.0,8.0,76,0.00,,,0.00,188,Wunderground v.1.15,2013-07-01 13:02:00,
2013-07-01 08:08:00,64.5,56.4,30.14,NNW,337,5.0,9.0,75,0.00,,,0.00,207,Wunderground v.1.15,2013-07-01 13:08:00,
2013-07-01 08:13:00,65.1,56.6,30.15,NNW,347,5.0,7.0,74,0.00,,,0.00,220,Wunderground v.1.15,2013-07-01 13:13:00,
2013-07-01 08:19:00,65.5,56.6,30.14,North,352,6.0,9.0,73,0.00,,,0.00,234,Wunderground v.1.15,2013-07-01 13:19:00,
2013-07-01 08:26:00,65.8,56.1,30.15,NNW,345,7.0,9.0,71,0.00,,,0.00,255,Wunderground v.1.15,2013-07-01 13:26:00,
2013-07-01 08:32:00,66.2,56.5,30.15,NNW,339,7.0,9.0,71,0.00,,,0.00,271,Wunderground v.1.15,2013-07-01 13:32:00,
2013-07-01 08:38:00,66.6,56.5,30.15,NNW,343,6.0,7.0,70,0.00,,,0.00,290,Wunderground v.1.15,2013-07-01 13:38:00,
2013-07-01 08:43:00,66.8,56.7,30.15,North,352,7.0,10.0,70,0.00,,,0.00,304,Wunderground v.1.15,2013-07-01 13:43:00,
2013-07-01 08:50:00,67.3,56.8,30.15,North,2,7.0,10.0,69,0.00,,,0.00,318,Wunderground v.1.15,2013-07-01 13:50:00,
2013-07-01 08:56:00,67.9,57.4,30.15,North,352,6.0,9.0,69,0.00,,,0.00,336,Wunderground v.1.15,2013-07-01 13:56:00,
2013-07-01 09:02:00,68.3,57.3,30.15,NNW,344,6.0,9.0,68,0.00,,,0.00,352,Wunderground v.1.15,2013-07-01 14:02:00,
2013-07-01 09:08:00,68.4,57.4,30.15,NNW,343,6.0,7.0,68,0.00,,,0.00,367,Wunderground v.1.15,2013-07-01 14:08:00,
2013-07-01 09:14:00,68.8,57.4,30.15,North,2,6.0,8.0,67,0.00,,,0.00,392,Wunderground v.1.15,2013-07-01 14:14:00,
2013-07-01 09:20:00,69.5,57.6,30.15,North,352,5.0,8.0,66,0.00,,,0.00,408,Wunderground v.1.15,2013-07-01 14:20:00,
2013-07-01 09:26:00,69.9,57.2,30.16,North,352,7.0,12.0,64,0.00,,,0.00,424,Wunderground v.1.15,2013-07-01 14:26:00,
2013-07-01 09:32:00,70.3,57.1,30.16,North,352,7.0,12.0,63,0.00,,,0.00,438,Wunderground v.1.15,2013-07-01 14:32:00,
2013-07-01 09:38:00,71.0,58.2,30.16,NNW,345,7.0,7.0,64,0.00,,,0.00,462,Wunderground v.1.15,2013-07-01 14:38:00,
2013-07-01 09:44:00,71.2,57.1,30.16,North,352,6.0,10.0,61,0.00,,,0.00,480,Wunderground v.1.15,2013-07-01 14:44:00,
2013-07-01 09:50:00,71.4,58.1,30.16,North,352,7.0,10.0,63,0.00,,,0.00,497,Wunderground v.1.15,2013-07-01 14:50:00,
2013-07-01 09:56:00,72.1,58.4,30.16,North,6,6.0,7.0,62,0.00,,,0.00,526,Wunderground v.1.15,2013-07-01 14:56:00,
2013-07-01 10:01:00,72.5,56.9,30.16,North,2,7.0,10.0,58,0.00,,,0.00,538,Wunderground v.1.15,2013-07-01 15:01:00,
2013-07-01 10:08:00,72.9,58.2,30.15,North,352,7.0,7.0,60,0.00,,,0.00,545,Wunderground v.1.15,2013-07-01 15:08:00,
2013-07-01 10:14:00,73.9,58.2,30.15,North,2,6.0,8.0,58,0.00,,,0.00,557,Wunderground v.1.15,2013-07-01 15:14:00,
2013-07-01 10:19:00,73.8,57.1,30.15,NNE,25,7.0,8.0,56,0.00,,,0.00,566,Wunderground v.1.15,2013-07-01 15:19:00,
2013-07-01 10:26:00,74.4,57.7,30.15,North,7,6.0,8.0,56,0.00,,,0.00,589,Wunderground v.1.15,2013-07-01 15:26:00,
2013-07-01 10:32:00,74.8,57.0,30.16,NW,304,7.0,8.0,54,0.00,,,0.00,606,Wunderground v.1.15,2013-07-01 15:32:00,
2013-07-01 10:38:00,75.1,56.8,30.15,NNW,347,7.0,8.0,53,0.00,,,0.00,617,Wunderground v.1.15,2013-07-01 15:38:00,
2013-07-01 10:44:00,75.5,56.6,30.15,North,8,6.0,7.0,52,0.00,,,0.00,633,Wunderground v.1.15,2013-07-01 15:44:00,
2013-07-01 10:50:00,75.7,56.3,30.16,North,352,6.0,11.0,51,0.00,,,0.00,670,Wunderground v.1.15,2013-07-01 15:50:00,
2013-07-01 10:56:00,75.8,55.3,30.16,North,9,8.0,11.0,49,0.00,,,0.00,673,Wunderground v.1.15,2013-07-01 15:56:00,
2013-07-01 11:02:00,76.5,55.3,30.16,NNW,341,7.0,11.0,48,0.00,,,0.00,686,Wunderground v.1.15,2013-07-01 16:02:00,
2013-07-01 11:08:00,76.9,56.3,30.16,North,8,7.0,16.0,49,0.00,,,0.00,731,Wunderground v.1.15,2013-07-01 16:08:00,
2013-07-01 11:14:00,77.2,53.6,30.16,NNW,343,8.0,8.0,44,0.00,,,0.00,761,Wunderground v.1.15,2013-07-01 16:14:00,
2013-07-01 11:20:00,77.8,53.5,30.16,North,352,8.0,10.0,43,0.00,,,0.00,756,Wunderground v.1.15,2013-07-01 16:20:00,
2013-07-01 11:26:00,77.8,51.5,30.16,NNE,28,9.0,17.0,40,0.00,,,0.00,737,Wunderground v.1.15,2013-07-01 16:26:00,
2013-07-01 11:32:00,78.2,53.9,30.15,NNE,14,11.0,17.0,43,0.00,,,0.00,744,Wunderground v.1.15,2013-07-01 16:32:00,
2013-07-01 11:38:00,78.5,52.8,30.15,NE,56,10.0,11.0,41,0.00,,,0.00,731,Wunderground v.1.15,2013-07-01 16:38:00,
2013-07-01 11:44:00,78.2,51.2,30.15,NNE,15,10.0,12.0,39,0.00,,,0.00,737,Wunderground v.1.15,2013-07-01 16:44:00,
2013-07-01 11:50:00,78.4,51.4,30.15,NNW,339,13.0,16.0,39,0.00,,,0.00,775,Wunderground v.1.15,2013-07-01 16:50:00,
2013-07-01 11:55:00,78.9,50.4,30.15,NNE,27,11.0,12.0,37,0.00,,,0.00,814,Wunderground v.1.15,2013-07-01 16:55:00,
2013-07-01 12:02:00,79.1,52.0,30.15,NNE,14,8.0,12.0,39,0.00,,,0.00,838,Wunderground v.1.15,2013-07-01 17:02:00,
2013-07-01 12:07:00,79.1,50.6,30.15,NNW,339,9.0,15.0,37,0.00,,,0.00,817,Wunderground v.1.15,2013-07-01 17:07:00,
2013-07-01 12:14:00,79.4,50.9,30.15,North,357,11.0,11.0,37,0.00,,,0.00,807,Wunderground v.1.15,2013-07-01 17:14:00,
2013-07-01 12:19:00,79.6,51.0,30.15,North,6,10.0,13.0,37,0.00,,,0.00,831,Wunderground v.1.15,2013-07-01 17:19:00,
2013-07-01 12:26:00,79.8,51.2,30.15,North,11,10.0,13.0,37,0.00,,,0.00,821,Wunderground v.1.15,2013-07-01 17:26:00,
2013-07-01 12:32:00,80.1,49.2,30.15,North,8,10.0,17.0,34,0.00,,,0.00,853,Wunderground v.1.15,2013-07-01 17:32:00,
2013-07-01 12:38:00,80.1,52.2,30.15,NW,326,10.0,11.0,38,0.00,,,0.00,847,Wunderground v.1.15,2013-07-01 17:38:00,
2013-07-01 12:44:00,80.2,50.1,30.15,NNE,12,9.0,9.0,35,0.00,,,0.00,842,Wunderground v.1.15,2013-07-01 17:44:00,
2013-07-01 12:50:00,80.3,50.1,30.14,NNE,14,10.0,14.0,35,0.00,,,0.00,824,Wunderground v.1.15,2013-07-01 17:50:00,
2013-07-01 12:56:00,80.5,50.3,30.15,North,2,11.0,13.0,35,0.00,,,0.00,858,Wunderground v.1.15,2013-07-01 17:56:00,
2013-07-01 13:02:00,80.3,49.4,30.15,NE,35,10.0,13.0,34,0.00,,,0.00,893,Wunderground v.1.15,2013-07-01 18:02:00,
2013-07-01 13:08:00,80.9,52.2,30.14,North,2,9.0,9.0,37,0.00,,,0.00,877,Wunderground v.1.15,2013-07-01 18:08:00,
2013-07-01 13:14:00,81.1,49.3,30.14,NNE,25,10.0,10.0,33,0.00,,,0.00,874,Wunderground v.1.15,2013-07-01 18:14:00,
2013-07-01 13:20:00,80.6,47.2,30.14,NE,40,10.0,10.0,31,0.00,,,0.00,847,Wunderground v.1.15,2013-07-01 18:20:00,
2013-07-01 13:26:00,80.8,50.6,30.14,NNW,347,9.0,9.0,35,0.00,,,0.00,879,Wunderground v.1.15,2013-07-01 18:26:00,
2013-07-01 13:32:00,80.9,49.9,30.15,ENE,67,9.0,16.0,34,0.00,,,0.00,900,Wunderground v.1.15,2013-07-01 18:32:00,
2013-07-01 13:38:00,80.6,48.8,30.14,NE,54,8.0,10.0,33,0.00,,,0.00,823,Wunderground v.1.15,2013-07-01 18:38:00,
2013-07-01 13:44:00,80.7,50.5,30.14,SE,131,7.0,7.0,35,0.00,,,0.00,911,Wunderground v.1.15,2013-07-01 18:44:00,
2013-07-01 13:50:00,81.1,50.9,30.14,NNE,22,7.0,8.0,35,0.00,,,0.00,912,Wunderground v.1.15,2013-07-01 18:50:00,
2013-07-01 13:56:00,81.7,50.6,30.14,NE,48,8.0,9.0,34,0.00,,,0.00,946,Wunderground v.1.15,2013-07-01 18:56:00,
2013-07-01 14:02:00,81.3,51.0,30.14,ENE,67,10.0,13.0,35,0.00,,,0.00,939,Wunderground v.1.15,2013-07-01 19:02:00,
2013-07-01 14:07:00,81.2,50.9,30.13,NE,36,10.0,10.0,35,0.00,,,0.00,960,Wunderground v.1.15,2013-07-01 19:07:00,
2013-07-01 14:14:00,81.7,49.8,30.13,ESE,117,8.0,8.0,33,0.00,,,0.00,970,Wunderground v.1.15,2013-07-01 19:14:00,
2013-07-01 14:20:00,82.1,50.1,30.13,East,81,7.0,10.0,33,0.00,,,0.00,984,Wunderground v.1.15,2013-07-01 19:20:00,
2013-07-01 14:26:00,82.1,50.1,30.13,NNE,19,8.0,9.0,33,0.00,,,0.00,951,Wunderground v.1.15,2013-07-01 19:26:00,
2013-07-01 14:32:00,83.0,52.5,30.12,North,352,8.0,9.0,35,0.00,,,0.00,970,Wunderground v.1.15,2013-07-01 19:32:00,
2013-07-01 14:37:00,82.3,48.6,30.13,NE,54,9.0,12.0,31,0.00,,,0.00,962,Wunderground v.1.15,2013-07-01 19:37:00,
2013-07-01 14:44:00,81.5,51.2,30.12,NE,53,8.0,8.0,35,0.00,,,0.00,940,Wunderground v.1.15,2013-07-01 19:44:00,
2013-07-01 14:50:00,82.9,50.0,30.12,North,352,8.0,9.0,32,0.00,,,0.00,997,Wunderground v.1.15,2013-07-01 19:50:00,
2013-07-01 14:56:00,82.9,52.4,30.12,ENE,72,8.0,11.0,35,0.00,,,0.00,308,Wunderground v.1.15,2013-07-01 19:56:00,
2013-07-01 15:02:00,82.0,50.9,30.12,North,6,8.0,12.0,34,0.00,,,0.00,925,Wunderground v.1.15,2013-07-01 20:02:00,
2013-07-01 15:08:00,82.3,49.5,30.12,ENE,70,10.0,10.0,32,0.00,,,0.00,914,Wunderground v.1.15,2013-07-01 20:08:00,
2013-07-01 15:14:00,81.2,51.7,30.12,NNE,19,8.0,8.0,36,0.00,,,0.00,916,Wunderground v.1.15,2013-07-01 20:14:00,
2013-07-01 15:19:00,82.6,52.9,30.12,NNE,23,8.0,14.0,36,0.00,,,0.00,919,Wunderground v.1.15,2013-07-01 20:19:00,
2013-07-01 15:26:00,82.2,50.2,30.11,North,9,8.0,9.0,33,0.00,,,0.00,248,Wunderground v.1.15,2013-07-01 20:26:00,
2013-07-01 15:32:00,81.3,53.3,30.11,North,352,8.0,9.0,38,0.00,,,0.00,853,Wunderground v.1.15,2013-07-01 20:32:00,
2013-07-01 15:38:00,82.9,51.6,30.11,NNW,348,9.0,10.0,34,0.00,,,0.00,842,Wunderground v.1.15,2013-07-01 20:38:00,
2013-07-01 15:44:00,83.7,49.9,30.11,North,357,10.0,10.0,31,0.00,,,0.00,851,Wunderground v.1.15,2013-07-01 20:44:00,
2013-07-01 15:50:00,84.1,53.5,30.11,North,2,8.0,10.0,35,0.00,,,0.00,847,Wunderground v.1.15,2013-07-01 20:50:00,
2013-07-01 15:56:00,84.2,52.0,30.11,North,10,8.0,15.0,33,0.00,,,0.00,837,Wunderground v.1.15,2013-07-01 20:56:00,
2013-07-01 16:02:00,83.7,51.5,30.10,NW,318,9.0,15.0,33,0.00,,,0.00,854,Wunderground v.1.15,2013-07-01 21:02:00,
2013-07-01 16:08:00,84.0,54.2,30.10,North,352,7.0,11.0,36,0.00,,,0.00,833,Wunderground v.1.15,2013-07-01 21:08:00,
2013-07-01 16:14:00,84.6,52.3,30.10,NE,48,7.0,11.0,33,0.00,,,0.00,788,Wunderground v.1.15,2013-07-01 21:14:00,
2013-07-01 16:20:00,83.8,49.9,30.10,NNE,30,8.0,15.0,31,0.00,,,0.00,809,Wunderground v.1.15,2013-07-01 21:20:00,
2013-07-01 16:26:00,83.4,52.1,30.10,NNE,22,8.0,13.0,34,0.00,,,0.00,840,Wunderground v.1.15,2013-07-01 21:26:00,
2013-07-01 16:32:00,84.4,50.5,30.10,North,2,8.0,14.0,31,0.00,,,0.00,831,Wunderground v.1.15,2013-07-01 21:32:00,
2013-07-01 16:38:00,82.6,50.6,30.10,NNE,33,9.0,11.0,33,0.00,,,0.00,761,Wunderground v.1.15,2013-07-01 21:38:00,
2013-07-01 16:44:00,83.3,51.2,30.09,NE,34,10.0,10.0,33,0.00,,,0.00,735,Wunderground v.1.15,2013-07-01 21:44:00,
2013-07-01 16:50:00,84.0,53.4,30.10,NE,43,9.0,10.0,35,0.00,,,0.00,733,Wunderground v.1.15,2013-07-01 21:50:00,
2013-07-01 16:56:00,83.0,51.7,30.09,NNE,32,7.0,8.0,34,0.00,,,0.00,719,Wunderground v.1.15,2013-07-01 21:56:00,
2013-07-01 17:02:00,83.1,51.0,30.09,NE,37,7.0,9.0,33,0.00,,,0.00,712,Wunderground v.1.15,2013-07-01 22:02:00,
2013-07-01 17:08:00,83.0,51.7,30.09,North,357,9.0,9.0,34,0.00,,,0.00,677,Wunderground v.1.15,2013-07-01 22:08:00,
2013-07-01 17:14:00,82.9,50.0,30.09,NNW,348,8.0,13.0,32,0.00,,,0.00,169,Wunderground v.1.15,2013-07-01 22:14:00,
2013-07-01 17:19:00,83.4,51.3,30.09,NE,41,10.0,15.0,33,0.00,,,0.00,650,Wunderground v.1.15,2013-07-01 22:19:00,
2013-07-01 17:26:00,83.9,52.5,30.09,NNE,15,10.0,11.0,34,0.00,,,0.00,626,Wunderground v.1.15,2013-07-01 22:26:00,
2013-07-01 17:32:00,83.8,51.6,30.09,NNE,25,8.0,15.0,33,0.00,,,0.00,643,Wunderground v.1.15,2013-07-01 22:32:00,
2013-07-01 17:38:00,83.6,48.9,30.09,NE,51,9.0,15.0,30,0.00,,,0.00,615,Wunderground v.1.15,2013-07-01 22:38:00,
2013-07-01 17:43:00,83.4,49.6,30.09,NE,55,10.0,10.0,31,0.00,,,0.00,568,Wunderground v.1.15,2013-07-01 22:43:00,
2013-07-01 17:50:00,83.3,51.2,30.09,NE,48,8.0,10.0,33,0.00,,,0.00,536,Wunderground v.1.15,2013-07-01 22:50:00,
2013-07-01 17:56:00,83.2,48.5,30.09,NE,34,7.0,8.0,30,0.00,,,0.00,529,Wunderground v.1.15,2013-07-01 22:56:00,
2013-07-01 18:02:00,83.4,53.6,30.08,NE,52,7.0,9.0,36,0.00,,,0.00,506,Wunderground v.1.15,2013-07-01 23:02:00,
2013-07-01 18:07:00,83.1,50.2,30.09,NNE,29,7.0,11.0,32,0.00,,,0.00,490,Wunderground v.1.15,2013-07-01 23:07:00,
2013-07-01 18:14:00,82.3,50.3,30.09,NNE,19,8.0,8.0,33,0.00,,,0.00,104,Wunderground v.1.15,2013-07-01 23:14:00,
2013-07-01 18:20:00,82.5,50.5,30.09,NNE,27,8.0,9.0,33,0.00,,,0.00,441,Wunderground v.1.15,2013-07-01 23:20:00,
2013-07-01 18:26:00,82.5,49.7,30.09,ENE,62,7.0,12.0,32,0.00,,,0.00,104,Wunderground v.1.15,2013-07-01 23:26:00,
2013-07-01 18:32:00,82.0,51.6,30.09,NNE,22,7.0,13.0,35,0.00,,,0.00,388,Wunderground v.1.15,2013-07-01 23:32:00,
2013-07-01 18:38:00,81.4,49.5,30.09,NE,39,8.0,9.0,33,0.00,,,0.00,98,Wunderground v.1.15,2013-07-01 23:38:00,
2013-07-01 18:44:00,81.4,51.1,30.09,NE,46,9.0,9.0,35,0.00,,,0.00,338,Wunderground v.1.15,2013-07-01 23:44:00,
2013-07-01 18:50:00,81.6,51.3,30.09,NE,35,8.0,9.0,35,0.00,,,0.00,318,Wunderground v.1.15,2013-07-01 23:50:00,
2013-07-01 18:56:00,81.3,50.2,30.09,NNE,27,7.0,7.0,34,0.00,,,0.00,62,Wunderground v.1.15,2013-07-01 23:56:00,
2013-07-01 19:01:00,80.0,50.6,30.09,NNE,28,7.0,13.0,36,0.00,,,0.00,67,Wunderground v.1.15,2013-07-02 00:01:00,
2013-07-01 19:08:00,80.1,51.5,30.09,NE,41,6.0,8.0,37,0.00,,,0.00,172,Wunderground v.1.15,2013-07-02 00:08:00,
2013-07-01 19:13:00,80.5,51.8,30.09,NNE,18,6.0,8.0,37,0.00,,,0.00,251,Wunderground v.1.15,2013-07-02 00:13:00,
2013-07-01 19:20:00,80.7,49.7,30.09,NE,46,8.0,9.0,34,0.00,,,0.00,227,Wunderground v.1.15,2013-07-02 00:20:00,
2013-07-01 19:25:00,80.6,49.6,30.09,NNE,25,7.0,11.0,34,0.00,,,0.00,202,Wunderground v.1.15,2013-07-02 00:25:00,
2013-07-01 19:32:00,80.3,49.4,30.09,NE,36,9.0,11.0,34,0.00,,,0.00,181,Wunderground v.1.15,2013-07-02 00:32:00,
2013-07-01 19:37:00,79.9,49.8,30.09,ENE,66,9.0,14.0,35,0.00,,,0.00,162,Wunderground v.1.15,2013-07-02 00:37:00,
2013-07-01 19:43:00,79.6,48.8,30.10,ENE,67,9.0,9.0,34,0.00,,,0.00,144,Wunderground v.1.15,2013-07-02 00:43:00,
2013-07-01 19:50:00,79.3,48.5,30.10,NNE,33,9.0,11.0,34,0.00,,,0.00,121,Wunderground v.1.15,2013-07-02 00:50:00,
2013-07-01 19:56:00,79.0,49.0,30.10,NE,35,8.0,9.0,35,0.00,,,0.00,42,Wunderground v.1.15,2013-07-02 00:56:00,
2013-07-01 20:02:00,78.6,48.7,30.10,NNE,15,8.0,9.0,35,0.00,,,0.00,39,Wunderground v.1.15,2013-07-02 01:02:00,
2013-07-01 20:08:00,78.4,47.7,30.10,NNE,26,8.0,11.0,34,0.00,,,0.00,35,Wunderground v.1.15,2013-07-02 01:08:00,
2013-07-01 20:14:00,78.3,48.4,30.10,NE,39,8.0,8.0,35,0.00,,,0.00,32,Wunderground v.1.15,2013-07-02 01:14:00,
2013-07-01 20:20:00,77.7,49.3,30.10,NE,50,7.0,8.0,37,0.00,,,0.00,26,Wunderground v.1.15,2013-07-02 01:20:00,
2013-07-01 20:26:00,77.0,49.4,30.10,NE,53,6.0,7.0,38,0.00,,,0.00,23,Wunderground v.1.15,2013-07-02 01:26:00,
2013-07-01 20:32:00,76.5,49.7,30.10,NE,41,6.0,7.0,39,0.00,,,0.00,16,Wunderground v.1.15,2013-07-02 01:32:00,
2013-07-01 20:37:00,75.9,49.2,30.10,ENE,66,6.0,7.0,39,0.00,,,0.00,9,Wunderground v.1.15,2013-07-02 01:37:00,
2013-07-01 20:44:00,75.6,48.9,30.10,NE,41,5.0,7.0,39,0.00,,,0.00,5,Wunderground v.1.15,2013-07-02 01:44:00,
2013-07-01 20:50:00,74.8,49.5,30.10,NE,43,5.0,7.0,41,0.00,,,0.00,5,Wunderground v.1.15,2013-07-02 01:50:00,
2013-07-01 20:56:00,73.4,50.2,30.10,NE,45,4.0,7.0,44,0.00,,,0.00,0,Wunderground v.1.15,2013-07-02 01:56:00,
2013-07-01 21:02:00,72.3,50.4,30.10,NE,43,4.0,7.0,46,0.00,,,0.00,0,Wunderground v.1.15,2013-07-02 02:02:00,
2013-07-01 21:08:00,71.9,50.0,30.11,NE,41,4.0,7.0,46,0.00,,,0.00,0,Wunderground v.1.15,2013-07-02 02:08:00,
2013-07-01 21:13:00,71.6,50.3,30.10,NE,36,4.0,7.0,47,0.00,,,0.00,0,Wunderground v.1.15,2013-07-02 02:13:00,
2013-07-01 21:20:00,71.8,49.9,30.11,NE,37,4.0,7.0,46,0.00,,,0.00,0,Wunderground v.1.15,2013-07-02 02:20:00,
2013-07-01 21:26:00,71.9,49.4,30.11,NE,44,3.0,7.0,45,0.00,,,0.00,0,Wunderground v.1.15,2013-07-02 02:26:00,
2013-07-01 21:32:00,71.4,49.5,30.11,NE,42,3.0,7.0,46,0.00,,,0.00,0,Wunderground v.1.15,2013-07-02 02:32:00,
2013-07-01 21:38:00,70.7,49.5,30.11,NE,40,3.0,7.0,47,0.00,,,0.00,0,Wunderground v.1.15,2013-07-02 02:38:00,
2013-07-01 21:44:00,70.2,49.6,30.12,NE,38,3.0,3.0,48,0.00,,,0.00,0,Wunderground v.1.15,2013-07-02 02:44:00,
2013-07-01 21:50:00,69.8,49.8,30.12,NE,41,4.0,7.0,49,0.00,,,0.00,0,Wunderground v.1.15,2013-07-02 02:50:00,
2013-07-01 21:56:00,69.3,49.9,30.12,NE,50,4.0,7.0,50,0.00,,,0.00,0,Wunderground v.1.15,2013-07-02 02:56:00,
2013-07-01 22:02:00,69.2,49.8,30.12,NE,36,4.0,7.0,50,0.00,,,0.00,0,Wunderground v.1.15,2013-07-02 03:02:00,
2013-07-01 22:07:00,69.0,50.1,30.12,NE,39,3.0,7.0,51,0.00,,,0.00,0,Wunderground v.1.15,2013-07-02 03:07:00,
2013-07-01 22:14:00,68.7,49.8,30.13,NE,40,3.0,7.0,51,0.00,,,0.00,0,Wunderground v.1.15,2013-07-02 03:14:00,
2013-07-01 22:20:00,68.7,49.8,30.13,NE,42,3.0,7.0,51,0.00,,,0.00,0,Wunderground v.1.15,2013-07-02 03:20:00,
2013-07-01 22:26:00,68.3,50.0,30.13,NE,37,3.0,7.0,52,0.00,,,0.00,0,Wunderground v.1.15,2013-07-02 03:26:00,
2013-07-01 22:32:00,67.9,50.1,30.13,NE,36,3.0,7.0,53,0.00,,,0.00,0,Wunderground v.1.15,2013-07-02 03:32:00,
2013-07-01 22:37:00,67.4,50.2,30.13,NE,35,3.0,7.0,54,0.00,,,0.00,0,Wunderground v.1.15,2013-07-02 03:37:00,
2013-07-01 22:44:00,67.4,50.2,30.13,NE,35,3.0,7.0,54,0.00,,,0.00,0,Wunderground v.1.15,2013-07-02 03:44:00,
2013-07-01 22:50:00,67.2,50.5,30.13,NE,34,3.0,7.0,55,0.00,,,0.00,0,Wunderground v.1.15,2013-07-02 03:50:00,
2013-07-01 22:56:00,67.3,50.6,30.13,NE,34,3.0,7.0,55,0.00,,,0.00,0,Wunderground v.1.15,2013-07-02 03:56:00,
2013-07-01 23:01:00,67.0,50.3,30.14,NE,36,3.0,7.0,55,0.00,,,0.00,0,Wunderground v.1.15,2013-07-02 04:01:00,
2013-07-01 23:03:00,66.9,50.2,30.14,NE,36,3.0,7.0,55,0.00,,,0.00,0,Wunderground v.1.15,2013-07-02 04:03:00,
2013-07-01 23:06:00,66.7,50.5,30.14,NE,36,3.0,7.0,56,0.00,,,0.00,0,Wunderground v.1.15,2013-07-02 04:06:00,
2013-07-01 23:08:00,66.4,50.2,30.14,NE,36,3.0,7.0,56,0.00,,,0.00,0,Wunderground v.1.15,2013-07-02 04:08:00,
2013-07-01 23:10:00,66.3,50.1,30.14,NE,36,3.0,7.0,56,0.00,,,0.00,0,Wunderground v.1.15,2013-07-02 04:10:00,
2013-07-01 23:15:00,66.1,49.9,30.14,NE,36,2.0,7.0,56,0.00,,,0.00,0,Wunderground v.1.15,2013-07-02 04:15:00,
2013-07-01 23:22:00,66.0,50.3,30.14,NE,36,2.0,7.0,57,0.00,,,0.00,0,Wunderground v.1.15,2013-07-02 04:22:00,
2013-07-01 23:28:00,66.0,49.8,30.14,NE,36,2.0,7.0,56,0.00,,,0.00,0,Wunderground v.1.15,2013-07-02 04:28:00,
2013-07-01 23:34:00,65.8,50.1,30.14,NE,36,3.0,3.0,57,0.00,,,0.00,0,Wunderground v.1.15,2013-07-02 04:34:00,
2013-07-01 23:40:00,65.8,50.1,30.14,NE,35,3.0,7.0,57,0.00,,,0.00,0,Wunderground v.1.15,2013-07-02 04:40:00,
2013-07-01 23:45:00,65.8,50.1,30.14,NE,35,3.0,7.0,57,0.00,,,0.00,0,Wunderground v.1.15,2013-07-02 04:45:00,
2013-07-01 23:52:00,65.7,50.0,30.14,NE,35,3.0,7.0,57,0.00,,,0.00,0,Wunderground v.1.15,2013-07-02 04:52:00,
2013-07-01 23:58:00,66.1,50.4,30.14,NNE,33,4.0,7.0,57,0.00,,,0.00,0,Wunderground v.1.15,2013-07-02 04:58:00,